Fort Covington, New York, United States (12937)
Lat: 44.99N, Lon: 74.5W
Wx Zone: NYZ027
Local Info
Past Weather Observations for Thursday, September 22, 2016

NOTE: This archive is for the closest National Weather Service station to Fort Covington. Information may differ from the station used for current weather conditions.

Click here for Long-term Archive

Time Weather Temperature Dewpoint Humidity Pressure Winds Precip Visibility
23:53
Overcast
Light Rain
57°F / 14°C 54°F / 12°C 88% 30.01 in
(1016 mb)
Calm 0.04 in
(1.02 mm)
9SM
22:53
Overcast
Light Rain
57°F / 14°C 54°F / 12°C 88% 30.01 in
(1016 mb)
NNE 5.8 mph
(NNE 9 kph)
0.02 in
(0.51 mm)
10SM
21:53
Overcast
Light Rain
59°F / 15°C 54°F / 12°C 82% 30.04 in
(1017 mb)
Calm 0.02 in
(0.51 mm)
10SM
20:53
Overcast
Light Rain
63°F / 17°C 54°F / 12°C 73% 30.04 in
(1017 mb)
E 5.8 mph
(E 9 kph)
0.00 in
(0.00 mm)
10SM
19:53
Overcast
64°F / 18°C 52°F / 11°C 64% 30.04 in
(1017 mb)
ENE 6.9 mph
(ENE 11 kph)
- 10SM
18:53
Overcast
66°F / 19°C 54°F / 12°C 64% 30.04 in
(1017 mb)
Variable 5.8 mph
(Variable 9 kph)
- 10SM
17:53
Mostly Cloudy
66°F / 19°C 54°F / 12°C 64% 30.04 in
(1017 mb)
E 8.1 mph
(E 13 kph)
- 10SM
16:53
Partly Cloudy
70°F / 21°C 57°F / 14°C 64% 30.04 in
(1017 mb)
E 8.1 mph
(E 13 kph)
- 10SM
15:53
Mostly Cloudy
73°F / 23°C 57°F / 14°C 57% 30.06 in
(1018 mb)
ENE 11.5 mph
(ENE 19 kph)
- 10SM
14:53
Clear
79°F / 26°C 59°F / 15°C 51% 30.04 in
(1017 mb)
ENE 9.2 mph
(ENE 15 kph)
- 10SM
13:53
Clear
77°F / 25°C 59°F / 15°C 54% 30.06 in
(1018 mb)
NE 10.4 mph
(NE 17 kph)
- 10SM
12:53
Clear
79°F / 26°C 59°F / 15°C 51% 30.09 in
(1019 mb)
Variable 4.6 mph
(Variable 7 kph)
- 10SM
11:53
Clear
75°F / 24°C 57°F / 14°C 54% 30.12 in
(1020 mb)
Variable 3.5 mph
(Variable 6 kph)
- 10SM
10:53
Clear
73°F / 23°C 57°F / 14°C 57% 30.15 in
(1021 mb)
Variable 4.6 mph
(Variable 7 kph)
- 10SM
09:53
Clear
70°F / 21°C 55°F / 13°C 60% 30.18 in
(1022 mb)
Variable 3.5 mph
(Variable 6 kph)
- 10SM
08:53
Clear
68°F / 20°C 55°F / 13°C 64% 30.18 in
(1022 mb)
Calm - 10SM
07:53
Clear
64°F / 18°C 52°F / 11°C 64% 30.21 in
(1023 mb)
Calm - 9SM
06:53
Mostly Cloudy
57°F / 14°C 52°F / 11°C 82% 30.21 in
(1023 mb)
Calm - 10SM
05:53
Clear
55°F / 13°C 52°F / 11°C 88% 30.18 in
(1022 mb)
Calm - 10SM
04:53
Overcast
57°F / 14°C 52°F / 11°C 82% 30.18 in
(1022 mb)
Calm - 10SM
03:53
Overcast
61°F / 16°C 52°F / 11°C 72% 30.18 in
(1022 mb)
SW 3.5 mph
(SW 6 kph)
- 10SM
02:53
Overcast
61°F / 16°C 52°F / 11°C 72% 30.18 in
(1022 mb)
SW 4.6 mph
(SW 7 kph)
- 10SM
01:53
Mostly Cloudy
63°F / 17°C 50°F / 10°C 64% 30.18 in
(1022 mb)
SW 5.8 mph
(SW 9 kph)
- 10SM
00:53
Clear
55°F / 13°C 50°F / 10°C 82% 30.15 in
(1021 mb)
W 3.5 mph
(W 6 kph)
- 10SM
Time Weather Temperature Dewpoint Humidity Pressure Winds Precip Visibility


Weather for websites

WeatherForYou.com, LLC is not responsible for any damages or problems caused by this service. Current weather conditions are obtained from the closest station including government and personal stations which may have varying degrees of accuracy. Weather forecasts are derived from the NOAA NDFD. Like all things, this site belongs to Jesus Christ... He just trusts us to maintain it. If you have any questions or comments email webmaster@weatherforyou.com

Copyright © 2016, WeatherForYou.com LLC. All rights reserved.